"Pseudo-MPEC" for P117OF5

Created 2020 Oct 28 19:07:08 UT using Find_Orb

Click here for an explanation of pseudo-MPECs

 
 Astrometry: 
     P117OF5  C2020 10 14+O12e:X)?]dq$s42xa4%ip`v@E=(u?Astrometryg$redacted;*F51
     P117OF5  C2020 10 14yjD1so8iM1#_/eNclick4here.DN+bn*YwYRd]\'[O!yxmhforL$F51
     P117OF5  C2020 10 14keh09V?7+$Ty.3PAfo$explanationg,]a\oT$A2p`TWykb#y;egF51

Station data:
(F51) Pan-STARRS 1, Haleakala  (N20.707235 W156.255910)  US/Hawaii.
   Observers N. Primak, A. Schultz, S. Watters, J. Thiel, T. Goggia. Measurer
   PS1 Science Consortium. 1.8-m Ritchey-Chrétien + CCD.

Orbital elements:  P117OF5
   Perihelion 2020 Sep 14.216736 +/- 41.9 TT =  5:12:06 (JD 2459106.716736)
Epoch 2020 Oct 14.0 TT = JDT 2459136.5   Earth MOID: 0.3020   Ma: 0.0128
M   6.92631210 +/- 20               (J2000 ecliptic)          AutoNEOCP
n   0.23255718 +/- 0.252            Peri.  135.03985 +/- 80
a   2.61888365 +/- 1.92             Node   218.50624 +/- 60
e   0.5111986 +/- 0.253             Incl.    9.32647 +/- 4.3
P   4.24                   H 23.9   G  0.15   U 11.8  SR
q 1.28011384 +/- 0.295    Q 3.95765347 +/- 51.7
From 3 observations 2020 Oct. 14 (42.7 min); mean residual 0".06
Residuals in arcseconds: 
201014 F51  .05+  .03+    201014 F51  .09-  .06-    201014 F51  .06+  .02+    

Ephemerides (geocentric):
Date (UTC) HH   RA              Dec         delta   r     elong  mag " sig PA
---- -- -- --  -------------   -----------  ------ ------ -----  --- ---- ---
2020 10 28 19  00 41 33.231   +10 06 59.68  .39539 1.3668 157.4 23.5  48d  10
2020 10 28 20  00 41 37.389   +10 06 10.25  .39561 1.3670 157.4 23.5  48d  10
2020 10 28 21  00 41 41.545   +10 05 20.88  .39584 1.3671 157.4 23.5  48d  10
2020 10 28 22  00 41 45.701   +10 04 31.58  .39606 1.3673 157.3 23.5  48d  10
2020 10 28 23  00 41 49.856   +10 03 42.34  .39629 1.3675 157.3 23.5  48d  10
2020 10 29 00  00 41 54.010   +10 02 53.17  .39651 1.3676 157.3 23.5  48d  10
2020 10 29 01  00 41 58.164   +10 02 04.06  .39674 1.3678 157.2 23.5  48d  10
2020 10 29 02  00 42 02.317   +10 01 15.02  .39696 1.3679 157.2 23.5  48d  10
2020 10 29 03  00 42 06.468   +10 00 26.05  .39719 1.3681 157.2 23.5  48d  10
2020 10 29 04  00 42 10.620   +09 59 37.13  .39742 1.3682 157.2 23.5  48d  10
2020 10 29 05  00 42 14.770   +09 58 48.29  .39764 1.3684 157.1 23.5  48d  10
2020 10 29 06  00 42 18.920   +09 57 59.51  .39787 1.3685 157.1 23.5  48d  10
2020 10 29 07  00 42 23.068   +09 57 10.79  .39810 1.3687 157.1 23.5  48d  10
2020 10 29 08  00 42 27.216   +09 56 22.14  .39832 1.3688 157.1 23.5  48d  10
2020 10 29 09  00 42 31.364   +09 55 33.55  .39855 1.3690 157.0 23.5  48d  10
2020 10 29 10  00 42 35.510   +09 54 45.03  .39878 1.3692 157.0 23.5  48d  10
2020 10 29 11  00 42 39.656   +09 53 56.58  .39901 1.3693 157.0 23.5  48d  10
2020 10 29 12  00 42 43.801   +09 53 08.19  .39924 1.3695 157.0 23.5  48d  10
2020 10 29 13  00 42 47.945   +09 52 19.87  .39947 1.3696 156.9 23.5  48d  10
2020 10 29 14  00 42 52.089   +09 51 31.61  .39970 1.3698 156.9 23.5  48d  10
2020 10 29 15  00 42 56.231   +09 50 43.42  .39992 1.3699 156.9 23.5  48d  10
2020 10 29 16  00 43 00.373   +09 49 55.29  .40015 1.3701 156.8 23.5  48d  10
2020 10 29 17  00 43 04.514   +09 49 07.23  .40038 1.3702 156.8 23.5  48d  10
2020 10 29 18  00 43 08.655   +09 48 19.23  .40061 1.3704 156.8 23.5  48d  10
2020 10 29 19  00 43 12.794   +09 47 31.30  .40084 1.3706 156.8 23.5  48d  10
2020 10 29 20  00 43 16.933   +09 46 43.44  .40108 1.3707 156.7 23.5  48d  10
2020 10 29 21  00 43 21.071   +09 45 55.64  .40131 1.3709 156.7 23.5  48d  10
2020 10 29 22  00 43 25.208   +09 45 07.91  .40154 1.3710 156.7 23.5  48d  10
2020 10 29 23  00 43 29.345   +09 44 20.24  .40177 1.3712 156.7 23.5  48d  10
2020 10 30 00  00 43 33.480   +09 43 32.64  .40200 1.3713 156.6 23.5  48d  10
2020 10 30 01  00 43 37.615   +09 42 45.10  .40223 1.3715 156.6 23.5  49d  10
2020 10 30 02  00 43 41.750   +09 41 57.63  .40247 1.3717 156.6 23.5  49d  10
2020 10 30 03  00 43 45.883   +09 41 10.23  .40270 1.3718 156.6 23.5  49d  10
2020 10 30 04  00 43 50.016   +09 40 22.89  .40293 1.3720 156.5 23.5  49d  10
2020 10 30 05  00 43 54.148   +09 39 35.62  .40316 1.3721 156.5 23.5  49d  10
2020 10 30 06  00 43 58.279   +09 38 48.41  .40340 1.3723 156.5 23.5  49d  10
2020 10 30 07  00 44 02.409   +09 38 01.27  .40363 1.3724 156.4 23.5  49d  10
2020 10 30 08  00 44 06.539   +09 37 14.20  .40387 1.3726 156.4 23.5  49d  10
2020 10 30 09  00 44 10.668   +09 36 27.19  .40410 1.3728 156.4 23.5  49d  10
2020 10 30 10  00 44 14.796   +09 35 40.25  .40433 1.3729 156.4 23.5  49d  10
2020 10 30 11  00 44 18.923   +09 34 53.38  .40457 1.3731 156.3 23.6  49d  10
2020 10 30 12  00 44 23.050   +09 34 06.57  .40480 1.3732 156.3 23.6  49d  10
2020 10 30 13  00 44 27.176   +09 33 19.82  .40504 1.3734 156.3 23.6  49d  10
2020 10 30 14  00 44 31.301   +09 32 33.15  .40527 1.3735 156.3 23.6  49d  10
2020 10 30 15  00 44 35.425   +09 31 46.54  .40551 1.3737 156.2 23.6  49d  10
2020 10 30 16  00 44 39.549   +09 30 59.99  .40575 1.3739 156.2 23.6  49d  10
2020 10 30 17  00 44 43.671   +09 30 13.51  .40598 1.3740 156.2 23.6  49d  10
2020 10 30 18  00 44 47.793   +09 29 27.10  .40622 1.3742 156.1 23.6  49d  10